DW3589 Weather Reports


time (UTC)temp
F
wind
direction
speed
knots
gust
knots
rain 1hr
in
rain 24hr
in
rain mn
in
humidity
%
barometer
mb
20260507052538 0 0.0 0.0 0.00 0.00 0.00
20260507051518 0 0.0 0.0 0.00 0.00 0.00
20260507051051 55 0.0 0.0 0.00 0.00 0.00 81 1011.8
20260507050600 55 0.0 0.0 0.00 0.00 0.00 81 1011.8
20260507045518 56 0.0 0.0 0.00 0.00 0.00 81 1011.7
20260507044518 55 0.0 0.0 0.00 0.00 0.00 83 1011.6
20260507043519 55 0.0 0.0 0.00 0.00 0.00 83 1011.5
20260507042518 55 0.0 0.0 0.00 0.00 0.00 83 1011.3
20260507041518 55 0.0 0.0 0.00 0.00 0.00 82 1011.3
20260507040518 55 0.0 0.0 0.00 0.00 0.00 83 1011.6
20260507035518 56 0.0 0.0 0.00 0.00 0.00 83 1011.6
20260507034518 56 0.0 0.0 0.00 0.00 0.00 83 1011.7
20260507033519 56 0.0 0.0 0.00 0.00 0.00 83 1011.7
20260507032518 56 0.0 0.0 0.00 0.00 0.00 84 1011.7
20260507031519 56 0.0 0.0 0.00 0.00 0.00 84 1011.6
20260507030519 56 0.0 0.0 0.00 0.00 0.00 84 1011.5
20260507025538 56 0.0 0.0 0.00 0.00 0.00 84 1011.4
20260507024518 56 0.0 0.0 0.00 0.00 0.00 85 1011.4
20260507023518 56 0.0 0.0 0.00 0.00 0.00 86 1011.5
20260507022518 57 0.0 0.0 0.00 0.00 0.00 86 1011.4
20260507021538 57 0.0 0.0 0.00 0.00 0.00 86 1011.4
20260507020518 57 0.0 0.0 0.00 0.00 0.00 85 1011.5
20260507015519 57 0.0 0.0 0.00 0.00 0.00 85 1011.6
20260507014518 57 0.0 0.0 0.00 0.00 0.00 85 1011.6
20260507013518 57 0.0 0.0 0.00 0.00 0.00 85 1011.8
20260507012518 57 0.0 0.0 0.00 0.00 0.00 84 1011.8
20260507011518 58 0.0 0.0 0.00 0.00 0.00 84 1011.9
20260507010520 58 0.0 0.0 0.00 0.00 0.00 85 1012.0
20260507005519 57 0.0 0.0 0.00 0.00 0.00 85 1012.1
20260507004518 57 0.0 0.0 0.00 0.00 0.00 85 1012.2
20260507003539 57 0.0 0.0 0.00 0.00 0.00 85 1012.3
20260507002518 57 0.0 0.0 0.00 0.00 0.00 85 1012.5
20260507001519 57 0.0 0.0 0.00 0.00 0.00 85 1012.6
20260507000518 57 0.0 0.0 0.00 0.00 0.00 85 1012.5
20260506235518 57 0.0 0.0 0.00 0.00 0.00 85 1012.7
20260506234518 57 0.0 0.0 0.00 0.00 0.00 85 1012.7
20260506233521 57 0.0 0.0 0.00 0.00 0.00 84 1012.7
20260506232558 58 0.0 0.0 0.00 0.00 0.00 84 1012.6
20260506231538 58 0.0 0.0 0.00 0.00 0.00 84 1012.6
20260506230518 58 0.0 0.0 0.00 0.00 0.00 83 1012.7
20260506225518 58 0.0 0.0 0.00 0.00 0.00 83 1012.8
20260506224519 59 0.0 0.0 0.00 0.00 0.00 83 1012.9
20260506223518 59 0.0 0.0 0.00 0.00 0.00 82 1012.9
20260506222519 59 0.0 0.0 0.00 0.00 0.00 82 1012.9
20260506221519 59 0.0 0.0 0.00 0.00 0.00 81 1012.9
20260506220539 59 0.0 0.0 0.00 0.00 0.00 81 1012.9
20260506215519 59 0.0 0.0 0.00 0.00 0.00 81 1012.8
20260506214519 59 0.0 0.0 0.00 0.00 0.00 81 1012.8
20260506213520 59 0.0 0.0 0.00 0.00 0.00 81 1012.7
20260506212539 60 0.0 0.0 0.00 0.00 0.00 80 1012.7
20260506211519 60 0.0 0.0 0.00 0.00 0.00 79 1012.6
20260506210519 60 0.0 0.0 0.00 0.00 0.00 79 1012.5
20260506205519 60 0.0 0.0 0.00 0.00 0.00 78 1012.6
20260506204520 61 0.0 0.0 0.00 0.00 0.00 77 1012.5
20260506203520 61 0.0 0.0 0.00 0.00 0.00 76 1012.5
20260506202519 61 0.0 0.0 0.00 0.00 0.00 76 1012.3
20260506201519 62 0.0 0.0 0.00 0.00 0.00 74 1012.3
20260506200519 62 0.0 0.0 0.00 0.00 0.00 73 1012.2
20260506195520 63 0.0 0.0 0.00 0.00 0.00 72 1012.1
20260506194519 63 0.0 0.0 0.00 0.00 0.00 70 1011.9
20260506193520 64 0.0 0.0 0.00 0.00 0.00 67 1011.6
20260506192520 64 0.0 0.0 0.00 0.00 0.00 65 1011.5
20260506191540 65 0.0 0.0 0.00 0.00 0.00 62 1011.4
20260506190519 66 0.0 0.0 0.00 0.00 0.00 59 1011.4
20260506185520 67 0.0 0.0 0.00 0.00 0.00 55 1011.3
20260506184519 68 0.0 0.0 0.00 0.00 0.00 53 1011.2
20260506183519 68 0.0 0.0 0.00 0.00 0.00 50 1011.1
20260506182519 69 0.0 0.0 0.00 0.00 0.00 48 1011.0
20260506181540 69 0.0 0.0 0.00 0.00 0.00 46 1010.9
20260506180519 70 0.0 0.0 0.00 0.00 0.00 45 1010.9
20260506175519 70 0.0 0.0 0.00 0.00 0.00 44 1010.9
20260506174518 70 0.0 0.0 0.00 0.00 0.00 45
20260506173518 71 0.0 0.0 0.00 0.00 0.00 44
20260506172559 71 0.0 0.0 0.00 0.00 0.00 44
20260506171519 72 0.0 0.0 0.00 0.00 0.00 44 1010.9
20260506170518 72 0.0 0.0 0.00 0.00 0.00 43 1011.0
20260506165519 73 0.0 0.0 0.00 0.00 0.00 42 1011.0
20260506164519 73 0.0 0.0 0.00 0.00 0.00 42 1011.0
20260506163540 73 0.0 0.0 0.00 0.00 0.00 41 1011.0
20260506162519 73 0.0 0.0 0.00 0.00 0.00 42 1011.1
20260506161519 74 0.0 0.0 0.00 0.00 0.00 42 1011.1
20260506160518 74 0.0 0.0 0.00 0.00 0.00 41 1011.1
20260506155540 74 0.0 0.0 0.00 0.00 0.00 40 1011.1
20260506154518 75 0.0 0.0 0.00 0.00 0.00 40 1011.2
20260506153518 74 0.0 0.0 0.00 0.00 0.00 41 1011.3
20260506152519 74 0.0 0.0 0.00 0.00 0.00 40 1011.4
20260506151518 74 0.0 0.0 0.00 0.00 0.00 40 1011.4
20260506150519 74 0.0 0.0 0.00 0.00 0.00 39 1011.5
20260506145519 74 0.0 0.0 0.00 0.00 0.00 41 1011.7
20260506144518 74 0.0 0.0 0.00 0.00 0.00 40 1011.8
20260506143519 75 0.0 0.0 0.00 0.00 0.00 37 1012.0
20260506142519 75 0.0 0.0 0.00 0.00 0.00 37 1012.2
20260506141519 75 0.0 0.0 0.00 0.00 0.00 37 1012.3
20260506140519 75 0.0 0.0 0.00 0.00 0.00 38 1012.4
20260506135519 75 0.0 0.0 0.00 0.00 0.00 39 1012.4
20260506134519 75 0.0 0.0 0.00 0.00 0.00 35 1012.6
20260506133539 75 0.0 0.0 0.00 0.00 0.00 37 1012.7
20260506132519 74 0.0 0.0 0.00 0.00 0.00 35 1012.7
20260506131519 73 0.0 0.0 0.00 0.00 0.00 35 1012.8
20260506130519 73 0.0 0.0 0.00 0.00 0.00 38 1012.9
20260506125519 74 0.0 0.0 0.00 0.00 0.00 37 1013.0
20260506124519 73 0.0 0.0 0.00 0.00 0.00 38 1013.0
20260506123519 73 0.0 0.0 0.00 0.00 0.00 37 1013.1
20260506122519 73 0.0 0.0 0.00 0.00 0.00 36 1013.3
20260506121519 73 0.0 0.0 0.00 0.00 0.00 38 1013.4
20260506120519 73 0.0 0.0 0.00 0.00 0.00 38 1013.4
20260506115519 72 0.0 0.0 0.00 0.00 0.00 38 1013.5
20260506114519 72 0.0 0.0 0.00 0.00 0.00 38 1013.5
20260506113539 72 0.0 0.0 0.00 0.00 0.00 41 1013.6
20260506112519 73 0.0 0.0 0.00 0.00 0.00 43 1013.7
20260506111519 72 0.0 0.0 0.00 0.00 0.00 45 1013.7
20260506110519 72 0.0 0.0 0.00 0.00 0.00 46 1013.6
20260506105519 72 0.0 0.0 0.00 0.00 0.00 49 1013.7
20260506104519 72 0.0 0.0 0.00 0.00 0.00 52 1013.8
20260506103519 70 0.0 0.0 0.00 0.00 0.00 55 1013.8
20260506102519 70 0.0 0.0 0.00 0.00 0.00 54 1013.8
20260506101519 69 0.0 0.0 0.00 0.00 0.00 58 1013.9
20260506100519 69 0.0 0.0 0.00 0.00 0.00 55 1013.9
20260506095519 70 0.0 0.0 0.00 0.00 0.00 58 1014.1
20260506094559 68 0.0 0.0 0.00 0.00 0.00 60 1014.1
20260506093539 68 0.0 0.0 0.00 0.00 0.00 63 1014.1
20260506092519 67 0.0 0.0 0.00 0.00 0.00 64 1014.1
20260506091519 65 0.0 0.0 0.00 0.00 0.00 68 1014.1
20260506090520 64 0.0 0.0 0.00 0.00 0.00 71 1014.1
20260506085519 63 0.0 0.0 0.00 0.00 0.00 73 1014.1
20260506084519 63 0.0 0.0 0.00 0.00 0.00 74 1014.2
20260506083519 62 0.0 0.0 0.00 0.00 0.00 75 1014.2
20260506082519 61 0.0 0.0 0.00 0.00 0.00 77 1014.1
20260506081519 61 0.0 0.0 0.00 0.00 0.00 77 1014.2
20260506080539 61 0.0 0.0 0.00 0.00 0.00 78 1014.1
20260506073519 60 0.0 0.0 0.00 0.00 0.00 82 1014.1
20260506072519 59 0.0 0.0 0.00 0.00 0.00 84 1014.1
20260506071519 58 0.0 0.0 0.00 0.00 0.00 85 1014.0
20260506070519 57 0.0 0.0 0.00 0.00 0.00 87 1014.2
20260506061519 54 0.0 0.0 0.00 0.00 0.00 87 1013.9
20260506060520 53 0.0 0.0 0.00 0.00 0.00 86 1013.9